• In Romania
  • List of Countries
  • For 7 days
  • Water Temperature
  • Satellite Maps
  • Weather Map
  • Weather Widgets
  • user-avatar
    Login

    Hourly Weather Kipungo

    Today, 17 January, Tuesday

    Time Temperature Precipitation Wind Pressure Humidity
    00:00 +20°C° 0 mm 2 mps 651 mmHg 50%
    01:00 +19°C° 0 mm 2 mps 651 mmHg 52%
    02:00 +20°C° 0 mm 1 mps 651 mmHg 52%
    03:00 +20°C° 0 mm 1 mps 651 mmHg 52%
    04:00 +20°C° 0 mm 1 mps 651 mmHg 52%
    05:00 +21°C° 0 mm 1 mps 651 mmHg 51%
    06:00 +21°C° 0 mm 1 mps 652 mmHg 50%
    07:00 +22°C° 0 mm 1 mps 652 mmHg 49%
    08:00 +24°C° 0 mm 1 mps 653 mmHg 43%
    09:00 +27°C° 0 mm 1 mps 653 mmHg 38%
    10:00 +29°C° 0 mm 1 mps 654 mmHg 32%
    11:00 +30°C° 0 mm 1 mps 653 mmHg 33%
    12:00 +31°C° 0 mm 2 mps 653 mmHg 34%
    13:00 +31°C° 0 mm 2 mps 653 mmHg 35%
    14:00 +30°C° 0.2 mm 2 mps 652 mmHg 42%
    15:00 +29°C° 0.2 mm 2 mps 651 mmHg 48%
    16:00 +27°C° 0.2 mm 3 mps 651 mmHg 55%
    17:00 +26°C° 0.1 mm 2 mps 651 mmHg 63%
    18:00 +24°C° 0.1 mm 1 mps 651 mmHg 71%
    19:00 +22°C° 0.1 mm 1 mps 651 mmHg 79%
    20:00 +22°C° 0 mm 1 mps 651 mmHg 79%
    21:00 +21°C° 0 mm 1 mps 652 mmHg 79%
    22:00 +21°C° 0 mm 1 mps 652 mmHg 80%
    23:00 +21°C° 0.2 mm 1 mps 652 mmHg 79%

    Tomorrow, 18 January, Wednesday

    Time Temperature Precipitation Wind Pressure Humidity
    00:00 +20°C° 0.2 mm 1 mps 652 mmHg 77%
    01:00 +20°C° 0.2 mm 1 mps 651 mmHg 76%
    02:00 +20°C° 0.1 mm 1 mps 651 mmHg 78%
    03:00 +19°C° 0.1 mm 1 mps 651 mmHg 79%
    04:00 +18°C° 0.1 mm 1 mps 650 mmHg 81%
    05:00 +19°C° 0.1 mm 1 mps 651 mmHg 80%
    06:00 +20°C° 0.1 mm 1 mps 652 mmHg 79%
    07:00 +18°C° 0.1 mm 0 mps 652 mmHg 78%
    08:00 +23°C° 0 mm 1 mps 653 mmHg 70%
    09:00 +25°C° 0 mm 1 mps 654 mmHg 62%
    10:00 +27°C° 0 mm 1 mps 655 mmHg 53%
    11:00 +28°C° 0.1 mm 1 mps 654 mmHg 48%
    12:00 +29°C° 0.1 mm 1 mps 654 mmHg 44%
    13:00 +30°C° 0.1 mm 2 mps 653 mmHg 39%
    14:00 +30°C° 0.2 mm 2 mps 653 mmHg 41%
    15:00 +29°C° 0.2 mm 2 mps 652 mmHg 43%
    16:00 +29°C° 0.2 mm 2 mps 652 mmHg 45%
    17:00 +27°C° 0.4 mm 1 mps 652 mmHg 55%
    18:00 +25°C° 0.4 mm 1 mps 652 mmHg 65%
    19:00 +22°C° 0.4 mm 1 mps 652 mmHg 75%
    20:00 +22°C° 0.1 mm 1 mps 652 mmHg 78%
    21:00 +21°C° 0.1 mm 1 mps 653 mmHg 80%
    22:00 +20°C° 0.1 mm 2 mps 653 mmHg 83%
    23:00 +19°C° 0.1 mm 2 mps 653 mmHg 85%

    Day after tomorrow, 19 January, Thursday

    Time Temperature Precipitation Wind Pressure Humidity
    00:00 +19°C° 0.1 mm 2 mps 652 mmHg 87%
    01:00 +19°C° 0.1 mm 2 mps 652 mmHg 89%
    02:00 +18°C° 0 mm 2 mps 652 mmHg 91%
    03:00 +19°C° 0 mm 1 mps 652 mmHg 92%
    04:00 +19°C° 0 mm 1 mps 651 mmHg 93%
    05:00 +19°C° 0 mm 1 mps 652 mmHg 90%
    06:00 +20°C° 0 mm 1 mps 652 mmHg 87%
    07:00 +21°C° 0 mm 1 mps 653 mmHg 84%
    08:00 +23°C° 0.1 mm 1 mps 654 mmHg 75%
    09:00 +25°C° 0.1 mm 1 mps 655 mmHg 65%
    10:00 +28°C° 0.1 mm 1 mps 655 mmHg 56%
    11:00 +28°C° 0.4 mm 1 mps 655 mmHg 53%
    12:00 +29°C° 0.4 mm 1 mps 654 mmHg 51%
    13:00 +28°C° 0.4 mm 0 mps 654 mmHg 48%
    14:00 +29°C° 0.4 mm 1 mps 653 mmHg 52%
    15:00 +28°C° 0.4 mm 1 mps 653 mmHg 56%
    16:00 +27°C° 0.4 mm 2 mps 652 mmHg 59%
    17:00 +25°C° 0.4 mm 2 mps 652 mmHg 66%
    18:00 +24°C° 0.4 mm 2 mps 653 mmHg 73%
    19:00 +21°C° 0.4 mm 2 mps 653 mmHg 79%
    20:00 +21°C° 0.2 mm 2 mps 653 mmHg 82%
    21:00 +20°C° 0.2 mm 2 mps 653 mmHg 84%
    22:00 +19°C° 0.2 mm 2 mps 654 mmHg 86%
    23:00 +20°C° 0 mm 1 mps 653 mmHg 87%

    20 January, Friday

    Time Temperature Precipitation Wind Pressure Humidity
    00:00 +19°C° 0 mm 1 mps 653 mmHg 87%
    01:00 +19°C° 0 mm 1 mps 652 mmHg 88%
    02:00 +19°C° 0.1 mm 1 mps 652 mmHg 89%
    03:00 +19°C° 0.1 mm 1 mps 652 mmHg 89%
    04:00 +19°C° 0.1 mm 1 mps 651 mmHg 90%
    05:00 +20°C° 0.2 mm 1 mps 652 mmHg 87%
    06:00 +20°C° 0.2 mm 1 mps 653 mmHg 84%
    07:00 +19°C° 0.2 mm 0 mps 653 mmHg 80%
    08:00 +23°C° 0 mm 0 mps 654 mmHg 68%
    09:00 +26°C° 0 mm 0 mps 655 mmHg 56%
    10:00 +29°C° 0 mm 0 mps 656 mmHg 43%
    11:00 +29°C° 0.3 mm 0 mps 655 mmHg 43%
    12:00 +29°C° 0.3 mm 0 mps 654 mmHg 43%
    13:00 +29°C° 0.3 mm 0 mps 654 mmHg 43%
    14:00 +30°C° 0.8 mm 1 mps 653 mmHg 47%
    15:00 +29°C° 0.8 mm 1 mps 653 mmHg 52%
    16:00 +29°C° 0.8 mm 1 mps 652 mmHg 56%
    17:00 +27°C° 0.3 mm 1 mps 652 mmHg 62%
    18:00 +25°C° 0.3 mm 1 mps 652 mmHg 67%
    19:00 +23°C° 0.3 mm 1 mps 652 mmHg 73%
    20:00 +22°C° 0.5 mm 1 mps 652 mmHg 77%
    21:00 +21°C° 0.5 mm 2 mps 652 mmHg 81%
    22:00 +20°C° 0.5 mm 2 mps 653 mmHg 86%
    23:00 +19°C° 0.3 mm 2 mps 652 mmHg 87%

    21 January, Saturday

    Time Temperature Precipitation Wind Pressure Humidity
    00:00 +20°C° 0.3 mm 1 mps 652 mmHg 89%
    01:00 +19°C° 0.3 mm 1 mps 652 mmHg 91%
    02:00 +19°C° 0.1 mm 1 mps 651 mmHg 92%
    03:00 +19°C° 0.1 mm 1 mps 651 mmHg 92%
    04:00 +19°C° 0.1 mm 1 mps 651 mmHg 93%
    05:00 +19°C° 0 mm 1 mps 651 mmHg 90%
    06:00 +20°C° 0 mm 1 mps 652 mmHg 86%
    07:00 +21°C° 0 mm 1 mps 653 mmHg 83%
    08:00 +24°C° 0 mm 1 mps 653 mmHg 70%
    09:00 +27°C° 0 mm 1 mps 654 mmHg 57%
    10:00 +30°C° 0 mm 1 mps 655 mmHg 44%
    11:00 +31°C° 0.1 mm 1 mps 655 mmHg 40%
    12:00 +32°C° 0.1 mm 1 mps 654 mmHg 37%
    13:00 +33°C° 0.1 mm 1 mps 654 mmHg 33%
    14:00 +32°C° 0.1 mm 1 mps 653 mmHg 34%
    15:00 +32°C° 0.1 mm 1 mps 653 mmHg 36%
    16:00 +31°C° 0.1 mm 1 mps 652 mmHg 37%
    17:00 +29°C° 0.1 mm 1 mps 652 mmHg 43%
    18:00 +27°C° 0.1 mm 1 mps 652 mmHg 50%
    19:00 +25°C° 0.1 mm 2 mps 652 mmHg 56%
    20:00 +24°C° 0.1 mm 2 mps 652 mmHg 61%
    21:00 +23°C° 0.1 mm 2 mps 652 mmHg 66%
    22:00 +21°C° 0.1 mm 3 mps 653 mmHg 71%
    23:00 +20°C° 0.2 mm 2 mps 652 mmHg 76%

    22 January, Sunday

    Time Temperature Precipitation Wind Pressure Humidity
    00:00 +19°C° 0.2 mm 2 mps 652 mmHg 81%
    01:00 +19°C° 0.2 mm 1 mps 651 mmHg 86%
    02:00 +19°C° 0 mm 1 mps 652 mmHg 86%
    03:00 +19°C° 0 mm 1 mps 652 mmHg 85%
    04:00 +19°C° 0 mm 1 mps 652 mmHg 84%
    05:00 +20°C° 0 mm 1 mps 652 mmHg 82%
    06:00 +20°C° 0 mm 1 mps 653 mmHg 81%
    07:00 +21°C° 0 mm 1 mps 653 mmHg 79%
    08:00 +23°C° 0 mm 1 mps 654 mmHg 68%
    09:00 +26°C° 0 mm 1 mps 654 mmHg 58%
    10:00 +28°C° 0 mm 1 mps 655 mmHg 47%
    11:00 +30°C° 0.1 mm 1 mps 655 mmHg 41%
    12:00 +32°C° 0.1 mm 2 mps 655 mmHg 35%
    13:00 +35°C° 0.1 mm 2 mps 655 mmHg 28%
    14:00 +34°C° 0.1 mm 2 mps 654 mmHg 32%
    15:00 +31°C° 0.1 mm 2 mps 653 mmHg 35%
    16:00 +30°C° 0.1 mm 2 mps 652 mmHg 38%
    17:00 +29°C° 0.1 mm 2 mps 652 mmHg 43%
    18:00 +27°C° 0.1 mm 2 mps 652 mmHg 47%
    19:00 +26°C° 0.1 mm 2 mps 652 mmHg 52%
    20:00 +24°C° 0.3 mm 2 mps 653 mmHg 59%
    21:00 +21°C° 0.3 mm 2 mps 653 mmHg 67%
    22:00 +20°C° 0.3 mm 2 mps 653 mmHg 74%
    23:00 +19°C° 0 mm 2 mps 653 mmHg 78%
    Show more